Hourly Data Report for October 01, 2013

All times are specified in Local Standard Time (LST). Add 1 hour to adjust for Daylight Saving Time where and when it is observed.

KITCHENER/WATERLOO
ONTARIO

43°27'39.000" N
80°22'43.000" W
321.60 m
6144239
71368
YKF

Download Data

Hourly Data (October 2013)
Hourly Data Report for October 1, 2013
Temp Definition
°C
Dew Point Temp Definition
°C
Rel Hum Definition
%
Wind Dir Definition
10's deg

Wind Spd Definition
km/h
Visibility Definition
km
Stn Press Definition
kPa
Hmdx Definition


Wind Chill Definition


Weather Definition


TIME
00:00 Legend Double Dagger 10.4 10.1 98 20 4 1.2 97.74     LegendNANA
01:00 Legend Double Dagger 9.2 8.9 98   0 0.2 97.76     LegendNANA
02:00 Legend Double Dagger 8.9 8.6 98 11 4 0.2 97.76     LegendNANA
03:00 Legend Double Dagger 10.8 10.5 98   0 0.4 97.77     LegendNANA
04:00 Legend Double Dagger 13.2 12.9 98 LegendMM 4 0.4 97.77     LegendNANA
05:00 Legend Double Dagger 13.9 13.6 98 22 4 0.4 97.78     LegendNANA
06:00 Legend Double Dagger 13.7 13.4 98 26 9 0.8 97.82     LegendNANA
07:00 Legend Double Dagger 14.1 13.6 97 24 8 4.0 97.85     LegendNANA
08:00 Legend Double Dagger 14.9 14.3 96 22 9 4.0 97.85     LegendNANA
09:00 Legend Double Dagger 15.4 14.2 92 21 8 4.8 97.84     LegendNANA
10:00 Legend Double Dagger 17.5 14.5 82 20 9 9.7 97.83     LegendNANA
11:00 Legend Double Dagger 20.2 13.8 66 21 18 16.1 97.80     LegendNANA
12:00 Legend Double Dagger 21.9 13.4 58 22 21 16.1 97.74 25   LegendNANA
13:00 Legend Double Dagger 23.4 13.1 52 22 21 16.1 97.65 26   LegendNANA
14:00 Legend Double Dagger 23.9 13.0 50 22 30 16.1 97.59 27   LegendNANA
15:00 Legend Double Dagger 23.9 14.3 55 22 32 16.1 97.55 27   LegendNANA
16:00 Legend Double Dagger 22.9 15.8 64 20 24 16.1 97.53 27   LegendNANA
17:00 Legend Double Dagger 20.9 15.8 72 20 22 16.1 97.53 25   LegendNANA
18:00 Legend Double Dagger 19.5 15.8 79 20 17 16.1 97.52     LegendNANA
19:00 Legend Double Dagger 18.5 15.6 83 21 17 16.1 97.54     LegendNANA
20:00 Legend Double Dagger 17.5 15.3 87 22 13 12.9 97.52     LegendNANA
21:00 Legend Double Dagger 16.8 15.2 90 24 15 8.1 97.57     LegendNANA
22:00 Legend Double Dagger 16.8 15.2 90 25 21 8.1 97.59     LegendNANA
23:00 Legend Double Dagger 16.8 14.5 86 26 24 12.9 97.58     LegendNANA

Notes on Data Quality.

Legend

  • E = Estimated
  • M = Missing
  • NA = Not Available
  • ‡ = Partner data that is not subject to review by the National Climate Archives
Date modified: